Terminal Aerodrome Forecast
Issued by NWS

Home | Current Version | Previous Version | Graphics & Text | Print | Product List | Glossary Off
Versions: 1 2 3 4 5 6 7 8 9 10 11 12 13 14 15 16 17 18 19 20 21 22 23 24 25 26 27 28 29 30 31 32 33 34 35 36 37 38

000
FTUS43 KDDC 290525 AAA
TAFHYS
TAF AMD
KHYS 290525Z 2905/2924 29016G21KT P6SM BKN035CB
      TEMPO 2905/2907 P6SM TSRA OVC025CB
     FM290900 31006KT P6SM SCT030=

USA.gov is the U.S. government's official web portal to all federal, state and local government web resources and services.